TimeCST,TemperatureF,Dew PointF,Humidity,Sea Level PressureIn,VisibilityMPH,Wind Direction,Wind SpeedMPH,Gust SpeedMPH,PrecipitationIn,Events,Conditions,WindDirDegrees,DateUTC
12:15 AM,28.4,24.8,86,30.46,10.0,Calm,Calm,-,N/A,,Clear,0,2012-11-13 06:15:00
12:35 AM,26.6,23.0,86,30.46,10.0,Calm,Calm,-,N/A,,Clear,0,2012-11-13 06:35:00
12:55 AM,26.6,24.8,93,30.46,10.0,Calm,Calm,-,N/A,,Clear,0,2012-11-13 06:55:00
1:35 AM,26.6,24.8,93,30.46,10.0,Calm,Calm,-,N/A,,Clear,0,2012-11-13 07:35:00
2:15 AM,26.6,24.8,93,30.47,10.0,Calm,Calm,-,N/A,,Clear,0,2012-11-13 08:15:00
2:35 AM,26.6,21.2,80,30.47,10.0,Calm,Calm,-,N/A,,Clear,0,2012-11-13 08:35:00
2:55 AM,26.6,23.0,86,30.48,10.0,Calm,Calm,-,N/A,,Clear,0,2012-11-13 08:55:00
3:15 AM,24.8,23.0,93,30.48,10.0,Calm,Calm,-,N/A,,Clear,0,2012-11-13 09:15:00
3:35 AM,24.8,24.8,100,30.48,10.0,Calm,Calm,-,N/A,,Clear,0,2012-11-13 09:35:00
3:55 AM,24.8,23.0,93,30.48,10.0,Calm,Calm,-,N/A,,Clear,0,2012-11-13 09:55:00
4:15 AM,24.8,21.2,86,30.49,10.0,Calm,Calm,-,N/A,,Clear,0,2012-11-13 10:15:00
4:35 AM,26.6,23.0,86,30.50,10.0,Calm,Calm,-,N/A,,Clear,0,2012-11-13 10:35:00
4:55 AM,24.8,23.0,93,30.51,10.0,Calm,Calm,-,N/A,,Clear,0,2012-11-13 10:55:00
5:15 AM,24.8,23.0,93,30.51,10.0,Calm,Calm,-,N/A,,Clear,0,2012-11-13 11:15:00
5:35 AM,24.8,21.2,86,30.51,10.0,Calm,Calm,-,N/A,,Clear,0,2012-11-13 11:35:00
5:55 AM,23.0,19.4,86,30.51,10.0,Calm,Calm,-,N/A,,Clear,0,2012-11-13 11:55:00
6:15 AM,23.0,19.4,86,30.52,10.0,Calm,Calm,-,N/A,,Clear,0,2012-11-13 12:15:00
6:35 AM,24.8,21.2,86,30.53,10.0,Calm,Calm,-,N/A,,Clear,0,2012-11-13 12:35:00
6:55 AM,23.0,19.4,86,30.53,10.0,Calm,Calm,-,N/A,,Clear,0,2012-11-13 12:55:00
7:15 AM,24.8,21.2,86,30.54,10.0,Calm,Calm,-,N/A,,Clear,0,2012-11-13 13:15:00
7:35 AM,26.6,24.8,93,30.54,10.0,Calm,Calm,-,N/A,,Clear,0,2012-11-13 13:35:00
7:55 AM,28.4,26.6,93,30.54,10.0,Calm,Calm,-,N/A,,Clear,0,2012-11-13 13:55:00
8:15 AM,30.2,28.4,93,30.55,10.0,Calm,Calm,-,N/A,,Clear,0,2012-11-13 14:15:00
8:35 AM,33.8,28.4,81,30.55,10.0,Calm,Calm,-,N/A,,Clear,0,2012-11-13 14:35:00
8:55 AM,37.4,28.4,70,30.56,10.0,Calm,Calm,-,N/A,,Clear,0,2012-11-13 14:55:00
9:15 AM,37.4,26.6,65,30.56,10.0,NNE,4.6,-,N/A,,Clear,30,2012-11-13 15:15:00
9:35 AM,39.2,24.8,56,30.56,10.0,NNE,4.6,-,N/A,,Clear,30,2012-11-13 15:35:00
10:15 AM,41.0,24.8,53,30.56,10.0,Calm,Calm,-,N/A,,Clear,0,2012-11-13 16:15:00
10:35 AM,41.0,21.2,45,30.55,10.0,NNE,4.6,-,N/A,,Clear,20,2012-11-13 16:35:00
10:55 AM,42.8,23.0,46,30.55,10.0,Calm,Calm,-,N/A,,Clear,0,2012-11-13 16:55:00
11:15 AM,42.8,21.2,42,30.54,10.0,NNE,5.8,-,N/A,,Clear,30,2012-11-13 17:15:00
11:35 AM,42.8,23.0,46,30.53,10.0,North,5.8,-,N/A,,Clear,10,2012-11-13 17:35:00
11:55 AM,44.6,24.8,46,30.52,10.0,SSW,4.6,-,N/A,,Clear,210,2012-11-13 17:55:00
12:15 PM,44.6,24.8,46,30.51,10.0,Calm,Calm,-,N/A,,Clear,0,2012-11-13 18:15:00
12:55 PM,44.6,21.2,39,30.49,10.0,Calm,Calm,-,N/A,,Clear,0,2012-11-13 18:55:00
1:15 PM,44.6,21.2,39,30.49,10.0,Calm,Calm,-,N/A,,Clear,0,2012-11-13 19:15:00
1:35 PM,46.4,23.0,40,30.48,10.0,ENE,5.8,-,N/A,,Clear,70,2012-11-13 19:35:00
1:55 PM,46.4,23.0,40,30.48,10.0,Calm,Calm,-,N/A,,Clear,0,2012-11-13 19:55:00
2:15 PM,46.4,23.0,40,30.48,10.0,North,5.8,-,N/A,,Clear,10,2012-11-13 20:15:00
2:35 PM,46.4,23.0,40,30.48,10.0,Calm,Calm,-,N/A,,Clear,0,2012-11-13 20:35:00
2:55 PM,46.4,23.0,40,30.48,10.0,NNE,5.8,-,N/A,,Clear,20,2012-11-13 20:55:00
3:15 PM,46.4,21.2,37,30.48,10.0,Calm,Calm,-,N/A,,Clear,0,2012-11-13 21:15:00
3:35 PM,44.6,21.2,39,30.48,10.0,NNE,5.8,-,N/A,,Clear,20,2012-11-13 21:35:00
3:55 PM,44.6,23.0,43,30.48,10.0,North,3.5,-,N/A,,Clear,10,2012-11-13 21:55:00
4:15 PM,44.6,21.2,39,30.49,10.0,Calm,Calm,-,N/A,,Clear,0,2012-11-13 22:15:00
4:35 PM,42.8,21.2,42,30.49,5.0,Calm,Calm,-,N/A,,Clear,0,2012-11-13 22:35:00
4:55 PM,42.8,21.2,42,30.48,2.5,Calm,Calm,-,N/A,,Clear,0,2012-11-13 22:55:00
5:15 PM,35.6,24.8,65,30.49,3.0,Calm,Calm,-,N/A,,Clear,0,2012-11-13 23:15:00
5:35 PM,35.6,23.0,60,30.49,5.0,Calm,Calm,-,N/A,,Clear,0,2012-11-13 23:35:00
5:55 PM,35.6,24.8,65,30.48,9.0,NE,3.5,-,N/A,,Clear,40,2012-11-13 23:55:00
6:15 PM,33.8,24.8,70,30.48,4.0,NNE,3.5,-,N/A,,Clear,20,2012-11-14 00:15:00
6:35 PM,32.0,24.8,75,30.48,5.0,Calm,Calm,-,N/A,,Clear,0,2012-11-14 00:35:00
6:55 PM,32.0,26.6,80,30.49,9.0,Calm,Calm,-,N/A,,Clear,0,2012-11-14 00:55:00
7:15 PM,28.4,24.8,86,30.49,9.0,Calm,Calm,-,N/A,,Clear,0,2012-11-14 01:15:00
7:35 PM,28.4,24.8,86,30.49,9.0,Calm,Calm,-,N/A,,Clear,0,2012-11-14 01:35:00
7:55 PM,28.4,24.8,86,30.49,8.0,Calm,Calm,-,N/A,,Clear,0,2012-11-14 01:55:00
8:15 PM,28.4,23.0,80,30.50,10.0,Calm,Calm,-,N/A,,Clear,0,2012-11-14 02:15:00
8:35 PM,28.4,26.6,93,30.50,9.0,Calm,Calm,-,N/A,,Clear,0,2012-11-14 02:35:00
8:55 PM,28.4,24.8,86,30.50,10.0,Calm,Calm,-,N/A,,Clear,0,2012-11-14 02:55:00
9:15 PM,28.4,26.6,93,30.51,8.0,Calm,Calm,-,N/A,,Clear,0,2012-11-14 03:15:00
9:35 PM,28.4,26.6,93,30.51,10.0,Calm,Calm,-,N/A,,Clear,0,2012-11-14 03:35:00
9:55 PM,28.4,24.8,86,30.51,10.0,Calm,Calm,-,N/A,,Clear,0,2012-11-14 03:55:00
10:15 PM,28.4,24.8,86,30.51,10.0,North,3.5,-,N/A,,Clear,10,2012-11-14 04:15:00
10:35 PM,28.4,24.8,86,30.50,5.0,Calm,Calm,-,N/A,,Clear,0,2012-11-14 04:35:00
10:55 PM,28.4,24.8,86,30.50,8.0,Calm,Calm,-,N/A,,Clear,0,2012-11-14 04:55:00
11:15 PM,28.4,26.6,93,30.50,9.0,Calm,Calm,-,N/A,,Clear,0,2012-11-14 05:15:00
11:35 PM,28.4,24.8,86,30.49,9.0,Calm,Calm,-,N/A,,Clear,0,2012-11-14 05:35:00
11:55 PM,28.4,24.8,86,30.49,9.0,NNE,3.5,-,N/A,,Clear,30,2012-11-14 05:55:00